Waarnemingen

Advertentie
Mijn weer
Sa Pobla, Spanje (8312): temperatuur & dauwpunt: 13.11.2017 18:00:00 - 19.11.2017 18:00:00 (CET)Sa Pobla, Spanje (8312): windsnelheid & windstoten: 13.11.2017 18:00:00 - 19.11.2017 18:00:00 (CET)Sa Pobla, Spanje (8312): windrichting: 13.11.2017 18:00:00 - 19.11.2017 18:00:00 (CET)Sa Pobla, Spanje (8312): luchtdruk: 13.11.2017 18:00:00 - 19.11.2017 18:00:00 (CET)Sa Pobla, Spanje (8312): zicht: 13.11.2017 18:00:00 - 19.11.2017 18:00:00 (CET)Sa Pobla, Spanje (8312): Zonneschijnduur: 13.11.2017 18:00:00 - 19.11.2017 18:00:00 (CET)Sa Pobla, Spanje (8312): neerslag: 13.11.2017 18:00:00 - 19.11.2017 18:00:00 (CET)
Datum & Tijd tt [°C] td [°C] ff [km/u] ff [kn] fx [km/u] fx [kn] dd ppp [hPa] vv [km] sd [min] rr [mm]
19.11.2017 18:00:00 14,5 9,6 4 2 8 4 ZO 1021,7 20 0 0,0
19.11.2017 17:00:00 16,8 10,2 8 4 18 10 NO 1021,4 20 28 0,0
19.11.2017 16:00:00 19,4 10,6 10 6 17 9 NNO 1021,0 20 60 0,0
19.11.2017 15:00:00 20,6 9,6 6 3 15 8 ONO 1020,9 20 60 0,0
19.11.2017 14:00:00 20,8 8,8 5 3 10 5 O 1021,3 20 60 0,0
19.11.2017 13:00:00 20,1 9,0 5 3 9 5 NO 1021,7 20 60 -
19.11.2017 12:00:00 19,5 11,2 4 2 10 5 O 1022,2 20 60 0,0
19.11.2017 11:00:00 17,1 13,5 6 4 11 6 Z 1022,5 20 60 0,0
19.11.2017 10:00:00 12,3 11,3 5 3 9 5 ZZO 1022,6 20 60 0,0
19.11.2017 09:00:00 8,7 8,3 4 2 10 5 Z 1022,5 17 60 0,0
19.11.2017 08:00:00 6,1 5,8 7 4 11 6 ZZW 1022,2 11 6 0,0
19.11.2017 07:00:00 4,9 4,6 7 4 10 6 Z 1021,8 6 0 -
19.11.2017 06:00:00 6,0 5,8 6 3 11 6 ZZW 1021,7 7 0 0,0
19.11.2017 05:00:00 6,1 5,6 7 4 13 7 ZZW 1021,5 7 0 0,0
19.11.2017 04:00:00 6,2 5,8 4 2 13 7 W 1021,9 6 0 0,0
19.11.2017 03:00:00 7,0 6,4 7 4 14 8 ZZW 1022,1 6 0 0,0
19.11.2017 02:00:00 7,3 6,7 6 4 11 6 ZZW 1021,9 7 0 0,0
19.11.2017 01:00:00 7,7 7,0 7 4 10 5 ZZW 1022,2 6 0 -
19.11.2017 00:00:00 8,5 7,6 6 3 11 6 Z 1022,5 7 0 0,0
18.11.2017 23:00:00 9,3 8,3 6 4 9 5 ZZW 1022,6 10 0 0,0
18.11.2017 22:00:00 10,0 8,4 4 2 10 5 ZZW 1022,8 14 0 0,0
18.11.2017 21:00:00 11,6 9,3 6 3 10 5 WZW 1022,4 18 0 0,0
18.11.2017 20:00:00 12,3 10,0 4 2 7 4 ZZW 1022,1 16 0 0,0
18.11.2017 19:00:00 12,5 9,7 4 2 6 3 WNW 1021,9 18 0 -
18.11.2017 18:00:00 13,5 9,6 0 0 9 5 N 1021,4 20 0 0,0
18.11.2017 17:00:00 15,8 9,9 6 3 16 9 ONO 1021,1 20 28 0,0
18.11.2017 16:00:00 17,3 9,9 11 6 21 12 O 1020,8 20 60 0,0
18.11.2017 15:00:00 17,6 9,9 13 7 27 14 NO 1020,8 20 59 0,0
18.11.2017 14:00:00 18,3 9,9 13 7 23 13 NO 1020,8 20 45 0,0
18.11.2017 13:00:00 18,8 11,6 5 3 17 9 NO 1021,0 20 54 -
18.11.2017 12:00:00 18,4 11,2 4 2 10 6 NNO 1021,8 18 60 0,0
18.11.2017 11:00:00 15,8 9,4 3 2 6 4 WNW 1021,8 20 60 0,0
18.11.2017 10:00:00 12,4 8,3 3 2 10 6 Z 1021,8 20 60 0,0
18.11.2017 09:00:00 7,9 6,4 6 3 13 7 Z 1021,5 20 51 0,0
18.11.2017 08:00:00 5,1 4,3 9 5 12 7 Z 1021,2 20 6 0,0
18.11.2017 07:00:00 5,2 4,3 7 4 10 6 ZZW 1021,0 20 0 -
18.11.2017 06:00:00 5,4 4,3 6 3 12 6 ZW 1020,6 20 0 0,0
18.11.2017 05:00:00 5,7 4,6 6 3 14 7 ZZW 1020,4 18 0 0,0
18.11.2017 04:00:00 5,8 5,0 7 4 10 6 ZZW 1020,2 16 0 0,0
18.11.2017 03:00:00 6,3 5,3 5 3 9 5 ZZW 1020,7 16 0 0,0
18.11.2017 02:00:00 6,8 5,6 6 4 10 5 ZZW 1020,8 17 0 0,0
18.11.2017 01:00:00 7,2 5,8 7 4 11 6 Z 1020,8 16 0 -
18.11.2017 00:00:00 7,4 6,1 7 4 11 6 Z 1020,9 15 0 0,0
17.11.2017 23:00:00 7,9 6,5 6 3 9 5 ZZW 1020,7 17 0 0,0
17.11.2017 22:00:00 8,4 6,8 6 4 9 5 ZZW 1020,7 17 0 0,0
17.11.2017 21:00:00 9,1 6,7 4 2 10 5 ZZW 1020,4 20 0 0,0
17.11.2017 20:00:00 10,4 7,4 6 3 9 5 ZZW 1020,2 20 0 0,0
17.11.2017 19:00:00 11,7 8,0 4 2 6 4 ZZW 1019,9 20 0 -
17.11.2017 18:00:00 14,4 8,5 5 3 11 6 NW 1019,5 20 0 0,0
17.11.2017 17:00:00 17,5 8,4 6 3 13 7 ONO 1019,1 20 28 0,0
17.11.2017 16:00:00 19,9 7,3 8 4 16 8 O 1019,1 20 60 0,0
17.11.2017 15:00:00 20,5 5,0 5 3 16 9 N 1019,3 20 60 0,0
17.11.2017 14:00:00 20,7 5,1 4 2 10 5 OZO 1019,8 20 60 0,0
17.11.2017 13:00:00 20,1 6,4 4 2 11 6 Z 1020,3 20 60 -
17.11.2017 12:00:00 19,1 7,1 5 3 13 7 Z 1021,1 20 60 0,0
17.11.2017 11:00:00 16,6 9,8 6 3 12 6 Z 1021,5 20 60 0,0
17.11.2017 10:00:00 12,4 10,4 5 3 12 6 Z 1021,6 20 60 0,0
17.11.2017 09:00:00 7,5 6,8 4 2 9 5 Z 1021,7 14 60 0,0
17.11.2017 08:00:00 4,4 4,1 8 4 13 7 Z 1021,4 20 11 0,0
17.11.2017 07:00:00 4,0 3,8 9 5 13 7 ZZW 1021,3 15 0 -
17.11.2017 06:00:00 4,3 3,9 9 5 13 7 ZZW 1021,2 11 0 0,0
17.11.2017 05:00:00 4,6 4,1 7 4 11 6 ZZW 1021,4 10 0 0,0
17.11.2017 04:00:00 5,4 5,0 6 3 10 6 ZZW 1021,3 8 0 0,0
17.11.2017 03:00:00 5,5 5,0 7 4 13 7 ZZW 1021,6 9 0 0,0
17.11.2017 02:00:00 6,1 5,5 8 5 11 6 ZZW 1021,7 8 0 0,0
17.11.2017 01:00:00 6,4 5,6 6 3 11 6 ZZW 1022,0 7 0 -
17.11.2017 00:00:00 7,1 6,4 6 4 12 6 ZZW 1022,3 9 0 0,0
16.11.2017 23:00:00 7,2 6,2 6 3 9 5 Z 1022,4 11 0 0,0
16.11.2017 22:00:00 8,1 7,0 5 3 9 5 ZZW 1022,2 12 0 0,0
16.11.2017 21:00:00 8,8 7,4 5 3 8 5 ZW 1022,1 12 0 0,0
16.11.2017 20:00:00 9,6 7,4 4 2 6 4 Z 1021,7 14 0 0,0
16.11.2017 19:00:00 11,1 8,0 2 1 7 4 NNW 1021,5 20 0 -
16.11.2017 18:00:00 13,5 8,9 5 3 14 8 NO 1020,7 19 0 0,0
16.11.2017 17:00:00 15,6 9,9 10 6 16 9 NO 1020,4 20 28 0,0
16.11.2017 16:00:00 17,6 10,2 9 5 17 9 ONO 1020,3 20 60 0,0
16.11.2017 15:00:00 18,4 10,3 8 5 16 8 NO 1020,3 20 60 0,0
16.11.2017 14:00:00 18,5 9,6 6 3 16 9 NNO 1020,7 20 60 0,0
16.11.2017 13:00:00 18,1 9,9 8 5 14 8 NNO 1021,3 20 60 -
16.11.2017 12:00:00 18,0 10,2 6 4 13 7 NNO 1021,9 20 60 0,0
16.11.2017 11:00:00 16,5 7,7 4 2 11 6 ZO 1022,2 20 60 0,0
16.11.2017 10:00:00 12,0 6,1 8 4 13 7 Z 1021,9 20 60 0,0
16.11.2017 09:00:00 7,2 4,6 7 4 11 6 ZZW 1021,5 15 60 0,0
16.11.2017 08:00:00 3,7 2,5 9 5 13 7 Z 1021,1 20 15 0,0
16.11.2017 07:00:00 3,2 2,1 7 4 12 6 Z 1020,7 20 0 -
16.11.2017 06:00:00 3,7 2,5 6 3 13 7 ZW 1020,5 20 0 0,0
16.11.2017 05:00:00 3,8 2,7 5 3 13 7 ZW 1020,3 20 0 0,0
16.11.2017 04:00:00 3,8 2,7 6 3 11 6 ZZW 1020,3 20 0 0,0
16.11.2017 03:00:00 4,2 3,0 5 3 13 7 ZW 1020,5 20 0 0,0
16.11.2017 02:00:00 4,4 3,0 6 4 13 7 Z 1020,6 20 0 0,0
16.11.2017 01:00:00 4,9 3,4 5 3 11 6 Z 1020,9 15 0 -
16.11.2017 00:00:00 5,3 3,4 6 4 12 6 ZZW 1021,2 17 0 0,0
15.11.2017 23:00:00 6,1 3,8 8 4 11 6 ZZW 1021,2 16 0 0,0
15.11.2017 22:00:00 6,8 4,1 6 3 10 5 ZW 1021,1 20 0 0,0
15.11.2017 21:00:00 7,3 3,9 4 2 10 5 ZO 1020,9 20 0 0,0
15.11.2017 20:00:00 9,1 4,5 6 4 10 5 WZW 1020,4 20 0 0,0
15.11.2017 19:00:00 10,2 5,0 2 1 9 5 Z 1020,0 20 0 -
15.11.2017 18:00:00 12,7 5,1 6 4 22 12 N 1019,4 20 0 0,0
15.11.2017 17:00:00 14,7 5,1 14 8 23 13 NNO 1019,0 20 30 0,0
15.11.2017 16:00:00 17,1 4,8 11 6 22 12 NNO 1019,0 20 60 0,0
15.11.2017 15:00:00 18,3 1,7 6 3 22 12 NNW 1018,9 20 60 0,0
15.11.2017 14:00:00 18,2 3,2 11 6 29 16 WNW 1018,9 20 60 0,0
15.11.2017 13:00:00 17,6 4,5 15 8 24 13 NW 1019,7 20 60 -
15.11.2017 12:00:00 18,2 5,1 5 3 27 14 Z 1020,3 20 60 0,0
15.11.2017 11:00:00 16,4 6,2 14 8 26 14 NW 1020,7 20 60 0,0
15.11.2017 10:00:00 12,8 7,3 6 3 10 6 ZZO 1020,7 20 50 0,0
15.11.2017 09:00:00 8,4 4,6 5 3 10 5 Z 1020,7 20 23 0,0
15.11.2017 08:00:00 6,6 3,2 5 3 19 11 Z 1020,5 20 1 0,0
15.11.2017 07:00:00 5,6 3,0 7 4 13 7 ZZW 1020,2 20 0 -
15.11.2017 06:00:00 5,4 2,5 7 4 11 6 Z 1019,9 20 0 0,0
15.11.2017 05:00:00 7,5 3,4 5 3 12 7 W 1019,7 20 0 0,0
15.11.2017 04:00:00 7,8 4,1 5 3 9 5 Z 1020,2 20 0 0,0
15.11.2017 03:00:00 7,7 3,9 5 3 11 6 ZW 1020,2 20 0 0,0
15.11.2017 02:00:00 8,2 3,2 5 3 10 5 ZW 1020,2 20 0 0,0
15.11.2017 01:00:00 10,5 3,9 8 4 21 11 NNO 1020,4 20 0 -
15.11.2017 00:00:00 11,6 3,8 12 6 31 17 N 1020,8 20 0 0,0
14.11.2017 23:00:00 12,1 3,6 18 10 32 17 N 1021,1 20 0 0,0
14.11.2017 22:00:00 11,6 3,4 15 8 32 17 N 1021,3 20 0 0,0
14.11.2017 21:00:00 11,6 3,6 14 7 31 17 N 1021,1 20 0 0,0
14.11.2017 20:00:00 11,4 3,4 14 8 28 15 N 1020,9 20 0 0,0
14.11.2017 19:00:00 11,0 3,9 12 7 25 14 N 1020,5 20 0 -
14.11.2017 18:00:00 11,2 3,4 11 6 29 16 N 1019,8 20 0 0,0
14.11.2017 17:00:00 12,0 3,4 17 9 40 22 N 1019,5 20 0 0,0
14.11.2017 16:00:00 12,5 2,7 24 13 41 22 N 1019,1 20 22 0,0
14.11.2017 15:00:00 13,1 2,9 27 14 54 29 N 1019,1 20 47 0,0
14.11.2017 14:00:00 12,8 1,7 27 15 57 31 N 1018,9 20 3 0,0
14.11.2017 13:00:00 12,9 1,9 31 17 53 29 N 1018,9 20 6 -
14.11.2017 12:00:00 13,6 1,9 29 16 59 32 N 1019,1 20 45 0,0
14.11.2017 11:00:00 12,7 1,3 32 18 61 33 N 1019,0 20 39 0,0
14.11.2017 10:00:00 12,6 0,4 35 19 61 33 N 1018,4 20 27 0,0
14.11.2017 09:00:00 12,6 0,0 29 16 65 35 N 1018,0 20 18 0,0
14.11.2017 08:00:00 12,1 -1,2 35 19 66 36 N 1017,3 20 1 0,0
14.11.2017 07:00:00 12,0 -0,5 36 19 68 37 N 1016,5 20 0 -
14.11.2017 06:00:00 11,9 -1,2 34 19 66 36 N 1016,4 20 0 0,0
14.11.2017 05:00:00 11,8 -2,0 39 21 63 34 N 1016,4 20 0 0,0
14.11.2017 04:00:00 12,4 -1,0 35 19 65 35 N 1016,0 20 0 0,0
14.11.2017 03:00:00 12,8 -1,2 31 17 56 30 N 1015,8 20 0 0,0
14.11.2017 02:00:00 12,7 0,6 25 13 53 28 N 1015,5 20 0 0,0
14.11.2017 01:00:00 13,1 0,9 28 15 50 27 N 1015,3 20 0 -
14.11.2017 00:00:00 13,2 0,2 24 13 46 25 N 1015,2 20 0 0,0
13.11.2017 23:00:00 13,7 -2,2 18 10 44 24 N 1014,9 20 0 0,0
13.11.2017 22:00:00 13,5 -3,9 26 14 55 30 N 1015,2 20 0 0,0
13.11.2017 21:00:00 14,0 -4,8 28 15 47 26 N 1014,7 20 0 0,0
13.11.2017 20:00:00 13,9 -3,3 25 14 50 27 N 1014,5 20 0 0,0
13.11.2017 19:00:00 14,2 -2,0 29 16 47 26 N 1014,6 20 0 -
13.11.2017 18:00:00 14,5 -3,3 16 9 44 24 NNW 1014,2 20 0 0,0

tt = temperatuur
td = dauwpunt
ff = windsnelheid
fx = windstoten
dd = windrichting
ppp = luchtdruk
vv = zicht
sd = Zonneschijnduur
rr = neerslag

Weerstations in de omgeving